RADUGA 28 (21821 NORAD) Tracking and Keplerian Element Data

This shows tracking and keplerian element data for the satellite.

Feedback or suggestion? Click here.




ElementValue
Catalog21821
NameRADUGA 28
Epoch Orbit12132
Epoch Day34.59538668
Epoch Year2025
RAAN344.6705
Inclination13.7346
Eccentricity0.0005027
Argument of Perigee176.2185
Mean Anonmoly292.7222
Mean Motion1.00211529
Decay Rate-3.37E-06
L11 21821U 91087A 25034.59538668 -.00000337 00000+0 00000+0 0 9995
L22 21821 13.7346 344.6705 0005027 176.2185 292.7222 1.00211529121329



Live tracking and technical data element details for RADUGA 28 (NORAD 21821). RADUGA 28 can be tracked NOW for your location showing map with azimuth and elevation plus other details from your city location.







IsCatalogInMostPopularTable: catalog: 21821, numindb: 337
Update: records affected: 1



GetName: 21821 RADUGA 28

Hit Count: updated at: Thu, 15 May 2025 10:00:13 GMT